TimeEST,TemperatureF,Dew PointF,Humidity,Sea Level PressureIn,VisibilityMPH,Wind Direction,Wind SpeedMPH,Gust SpeedMPH,PrecipitationIn,Events,Conditions,WindDirDegrees,DateUTC
12:53 AM,-8.0,-14.1,75,30.28,10.0,Calm,Calm,-,N/A,,Clear,0,2013-02-11 05:53:00
1:53 AM,-9.0,-14.1,79,30.30,10.0,Calm,Calm,-,N/A,,Clear,0,2013-02-11 06:53:00
2:53 AM,-7.1,-13.0,75,30.28,10.0,Calm,Calm,-,N/A,,Clear,0,2013-02-11 07:53:00
3:53 AM,-7.1,-14.1,72,30.26,10.0,Calm,Calm,-,N/A,,Clear,0,2013-02-11 08:53:00
4:53 AM,-8.0,-13.0,79,30.25,10.0,Calm,Calm,-,N/A,,Clear,0,2013-02-11 09:53:00
5:53 AM,-9.9,-16.1,74,30.23,10.0,Calm,Calm,-,N/A,,Clear,0,2013-02-11 10:53:00
6:53 AM,-8.0,-14.1,75,30.22,10.0,Calm,Calm,-,N/A,,Clear,0,2013-02-11 11:53:00
7:53 AM,-4.0,-9.0,79,30.22,10.0,Calm,Calm,-,N/A,,Clear,0,2013-02-11 12:53:00
8:53 AM,6.1,-0.0,76,30.19,10.0,Calm,Calm,-,N/A,,Clear,0,2013-02-11 13:53:00
9:53 AM,21.0,1.0,42,30.16,10.0,Variable,3.5,-,N/A,,Clear,0,2013-02-11 14:53:00
10:53 AM,25.0,-0.0,34,30.11,10.0,Variable,5.8,-,0.01,,Scattered Clouds,0,2013-02-11 15:53:00
11:53 AM,27.0,5.0,39,30.05,10.0,SSE,6.9,-,N/A,,Scattered Clouds,160,2013-02-11 16:53:00
12:53 PM,28.9,14.0,54,30.00,10.0,South,9.2,17.3,N/A,,Overcast,170,2013-02-11 17:53:00
1:53 PM,30.0,19.0,64,29.97,4.0,South,6.9,19.6,0.00,Snow,Light Snow,170,2013-02-11 18:53:00
2:41 PM,28.4,21.2,74,29.92,1.8,South,9.2,18.4,0.00,Snow,Light Snow,180,2013-02-11 19:41:00
2:46 PM,28.4,23.0,80,29.91,0.8,South,10.4,18.4,0.00,Snow,Light Snow,170,2013-02-11 19:46:00
2:53 PM,28.9,24.1,82,29.94,0.5,South,8.1,-,0.01,Snow,Snow,170,2013-02-11 19:53:00
3:06 PM,28.4,24.8,86,29.89,0.5,SSE,8.1,-,0.00,Fog-Snow,Snow,160,2013-02-11 20:06:00
3:44 PM,28.4,26.6,93,29.86,0.2,SSE,9.2,16.1,0.03,Fog-Snow,Heavy Snow,160,2013-02-11 20:44:00
3:53 PM,28.9,26.1,89,29.89,0.2,SSE,6.9,-,0.05,Fog-Snow,Heavy Snow,160,2013-02-11 20:53:00
4:16 PM,30.2,26.6,86,29.83,1.0,SSE,8.1,-,0.01,Snow,Light Snow,150,2013-02-11 21:16:00
4:23 PM,30.2,26.6,86,29.82,1.2,SSE,8.1,-,0.01,Snow,Light Snow,150,2013-02-11 21:23:00
4:34 PM,30.2,26.6,86,29.81,0.5,SSE,9.2,17.3,0.02,Fog-Snow,Snow,150,2013-02-11 21:34:00
4:46 PM,30.2,26.6,86,29.80,0.5,SE,11.5,-,0.02,Fog-Snow,Snow,140,2013-02-11 21:46:00
4:53 PM,30.0,27.0,88,29.83,1.0,SSE,9.2,-,0.02,Snow,Light Snow,150,2013-02-11 21:53:00
5:00 PM,30.2,26.6,86,29.79,1.5,SE,9.2,18.4,0.01,Snow,Light Snow,140,2013-02-11 22:00:00
5:49 PM,30.2,28.4,93,29.75,1.2,SSE,11.5,20.7,0.03,Snow,Light Snow,150,2013-02-11 22:49:00
5:53 PM,30.9,28.0,89,29.79,1.2,SSE,10.4,20.7,0.03,Snow,Light Snow,150,2013-02-11 22:53:00
6:02 PM,32.0,28.4,87,29.74,1.5,SSE,10.4,17.3,0.00,Snow,Light Snow,150,2013-02-11 23:02:00
6:11 PM,32.0,28.4,87,29.74,1.8,SSE,8.1,16.1,0.01,Snow,Light Snow,150,2013-02-11 23:11:00
6:46 PM,32.0,28.4,87,29.72,1.8,SE,3.5,-,0.02,Snow,Light Snow,140,2013-02-11 23:46:00
6:53 PM,32.0,28.9,88,29.75,2.0,Calm,Calm,-,0.02,Snow,Light Snow,0,2013-02-11 23:53:00
7:20 PM,33.8,30.2,87,29.69,2.5,Variable,6.9,-,0.01,Snow,Light Snow,0,2013-02-12 00:20:00
7:43 PM,33.8,30.2,87,29.68,3.0,SSE,8.1,-,0.02,Snow,Light Snow,160,2013-02-12 00:43:00
7:53 PM,33.1,30.0,89,29.71,4.0,Variable,6.9,-,0.02,,Overcast,0,2013-02-12 00:53:00
8:53 PM,33.1,30.0,89,29.66,5.0,Variable,6.9,-,0.01,,Overcast,0,2013-02-12 01:53:00
9:53 PM,34.0,30.9,89,29.62,3.0,South,5.8,-,0.01,,Overcast,170,2013-02-12 02:53:00
10:53 PM,33.8,30.2,87,29.55,3.0,NNW,3.5,-,N/A,,Overcast,340,2013-02-12 03:53:00
11:26 PM,33.8,30.2,87,29.54,2.5,NNE,3.5,-,N/A,,Overcast,30,2013-02-12 04:26:00
11:44 PM,33.8,30.2,87,29.53,1.8,NNE,3.5,-,N/A,,Overcast,20,2013-02-12 04:44:00
11:53 PM,33.1,30.9,92,29.55,1.5,NNE,3.5,-,0.01,,Overcast,20,2013-02-12 04:53:00